Location: Tierra del Sol
(32.6128°N, 116.3319°W)
Time: 14:34:20
(UTC-07:00)

ISS - Pass Details

Date: 16 October 2017
Orbit: 401 x 408 km, 51.6° (Epoch: 22 October)

Event Time Altitude Azimuth Distance (km) Brightness Sun altitude
Rises 19:25:50 0° 307° (NW) 2,320 0.9 -16.5°
Reaches altitude 10° 19:27:59 10° 299° (WNW) 1,459 -0.1 -17.0°
Maximum altitude 19:31:04 39° 229° (SW) 620 -2.5 -17.7°
Enters shadow 19:33:05 18° 167° (SSE) 1,067 -1.9 -18.1°
